| time (UTC) | temp C | wind direction | speed KPH | gust KPH | rain 1hr cm | rain 24hr cm | rain mn cm | humidity % | barometer mb |
| 20260902023507 | 15 | 313 | 0.0 | 0.0 | 0.00 | 0.00 | 0.00 | 91 | 1018.3 |
| 20260902022506 | 15 | 288 | 0.0 | 1.6 | 0.00 | 0.00 | 0.00 | 91 | 1018.4 |
| 20260902021531 | 15 | 309 | 0.0 | 1.6 | 0.00 | 0.00 | 0.00 | 91 | 1018.4 |
| 20260902020518 | 15 | 293 | 0.0 | 1.6 | 0.00 | 0.00 | 0.00 | 91 | 1018.5 |
| 20260902014401 | 15 | 293 | 0.0 | 0.0 | 0.00 | 0.00 | 0.00 | 90 | 1018.7 |
| 20260902013342 | 15 | 169 | 0.0 | 0.0 | 0.00 | 0.00 | 0.00 | 90 | 1018.6 |
| 20260902012309 | 15 | 169 | 0.0 | 0.0 | 0.00 | 0.00 | 0.00 | 90 | 1018.6 |
| 20260902010207 | 15 | 169 | 0.0 | 0.0 | 0.00 | 0.00 | 0.00 | 89 | 1018.8 |
| 20260902005222 | 15 | 169 | 0.0 | 1.6 | 0.00 | 0.00 | 0.00 | 89 | 1018.9 |
| 20260902003017 | 15 | 255 | 0.0 | 3.2 | 0.00 | 0.00 | 0.00 | 89 | 1019.0 |
| 20260902002028 | 15 | 294 | 0.0 | 6.4 | 0.00 | 0.00 | 0.00 | 89 | 1019.1 |
| 20260902001020 | 15 | 286 | 1.6 | 4.8 | 0.00 | 0.00 | 0.00 | 89 | 1019.1 |
| 20260901234901 | 15 | 292 | 0.0 | 0.0 | 0.00 | 0.00 | 0.00 | 88 | 1019.1 |
| 20260901233833 | 15 | 285 | 0.0 | 1.6 | 0.00 | 0.00 | 0.00 | 88 | 1019.1 |
| 20260901232840 | 15 | 285 | 0.0 | 0.0 | 0.00 | 0.00 | 0.00 | 87 | 1019.2 |
| 20260901230730 | 14 | 307 | 0.0 | 3.2 | 0.00 | 0.00 | 0.00 | 87 | 1019.3 |
| 20260901225706 | 15 | 274 | 0.0 | 0.0 | 0.00 | 0.00 | 0.00 | 88 | 1019.4 |
| 20260901224657 | 14 | 283 | 0.0 | 0.0 | 0.00 | 0.00 | 0.00 | 87 | 1019.3 |
| 20260901223638 | 15 | 283 | 0.0 | 0.0 | 0.00 | 0.00 | 0.00 | 88 | 1019.3 |
| 20260901221445 | 14 | 283 | 0.0 | 0.0 | 0.00 | 0.00 | 0.00 | 88 | 1019.4 |
| 20260901215244 | 14 | 283 | 0.0 | 0.0 | 0.00 | 0.00 | 0.00 | 87 | 1019.4 |
| 20260901213106 | 15 | 283 | 0.0 | 0.0 | 0.00 | 0.00 | 0.00 | 85 | 1019.5 |
| 20260901212109 | 15 | 283 | 0.0 | 0.0 | 0.00 | 0.00 | 0.00 | 84 | 1019.5 |
| 20260901211059 | 15 | 283 | 0.0 | 0.0 | 0.00 | 0.00 | 0.00 | 83 | 1019.5 |
| 20260901203858 | 16 | 279 | 1.6 | 0.0 | 0.00 | 0.00 | 0.00 | 79 | 1019.4 |
| 20260901202841 | 16 | 283 | 1.6 | 6.4 | 0.00 | 0.00 | 0.00 | 79 | 1019.5 |
| 20260901201850 | 16 | 290 | 4.8 | 11.3 | 0.00 | 0.00 | 0.00 | 80 | 1019.5 |
| 20260901200833 | 16 | 248 | 1.6 | 12.9 | 0.00 | 0.00 | 0.00 | 80 | 1019.5 |
| 20260901195847 | 16 | 285 | 3.2 | 12.9 | 0.00 | 0.00 | 0.00 | 81 | 1019.3 |
| 20260901194841 | 16 | 292 | 1.6 | 11.3 | 0.00 | 0.00 | 0.00 | 82 | 1019.2 |
| 20260901193843 | 16 | 289 | 1.6 | 8.0 | 0.00 | 0.00 | 0.00 | 82 | 1019.3 |
| 20260901192815 | 16 | 306 | 0.0 | 6.4 | 0.00 | 0.00 | 0.00 | 82 | 1019.2 |
| 20260901191803 | 16 | 257 | 0.0 | 6.4 | 0.00 | 0.00 | 0.00 | 81 | 1019.1 |
| 20260901190751 | 16 | 232 | 0.0 | 0.0 | 0.00 | 0.00 | 0.00 | 81 | 1019.1 |
| 20260901185804 | 16 | 227 | 0.0 | 0.0 | 0.00 | 0.00 | 0.00 | 80 | 1019.1 |
| 20260901184758 | 16 | 227 | 0.0 | 0.0 | 0.00 | 0.00 | 0.00 | 80 | 1019.1 |
| 20260901183802 | 17 | 227 | 0.0 | 0.0 | 0.00 | 0.00 | 0.00 | 78 | 1019.0 |
| 20260901182806 | 17 | 227 | 0.0 | 0.0 | 0.00 | 0.00 | 0.00 | 77 | 1019.1 |
| 20260901181828 | 17 | 224 | 0.0 | 0.0 | 0.00 | 0.00 | 0.00 | 77 | 1019.2 |
| 20260901180828 | 17 | 224 | 0.0 | 0.0 | 0.00 | 0.00 | 0.00 | 77 | 1019.2 |
| 20260901175757 | 17 | 280 | 0.0 | 0.0 | 0.00 | 0.00 | 0.00 | 78 | 1019.2 |
| 20260901174729 | 17 | 275 | 3.2 | 8.0 | 0.00 | 0.00 | 0.00 | 78 | 1019.4 |
| 20260901173731 | 17 | 287 | 1.6 | 8.0 | 0.00 | 0.00 | 0.00 | 78 | 1019.4 |
| 20260901172733 | 17 | 296 | 3.2 | 9.7 | 0.00 | 0.00 | 0.00 | 79 | 1019.3 |
| 20260901171715 | 17 | 283 | 3.2 | 12.9 | 0.00 | 0.00 | 0.00 | 79 | 1019.3 |
| 20260901170729 | 17 | 271 | 4.8 | 12.9 | 0.00 | 0.00 | 0.00 | 80 | 1019.5 |
| 20260901165750 | 17 | 281 | 3.2 | 8.0 | 0.00 | 0.00 | 0.00 | 81 | 1019.6 |
| 20260901163652 | 17 | 295 | 1.6 | 9.7 | 0.00 | 0.00 | 0.00 | 81 | 1019.4 |
| 20260901162632 | 17 | 261 | 3.2 | 11.3 | 0.00 | 0.00 | 0.00 | 80 | 1019.4 |
| 20260901160525 | 18 | 330 | 6.4 | 19.3 | 0.00 | 0.00 | 0.00 | 76 | 1019.5 |
| 20260901155543 | 18 | 285 | 6.4 | 19.3 | 0.00 | 0.00 | 0.00 | 74 | 1019.4 |
| 20260901153449 | 19 | 277 | 4.8 | 12.9 | 0.00 | 0.00 | 0.00 | 73 | 1019.2 |
| 20260901152513 | 19 | 285 | 1.6 | 6.4 | 0.00 | 0.00 | 0.00 | 75 | 1019.3 |
| 20260901151511 | 18 | 298 | 1.6 | 9.7 | 0.00 | 0.00 | 0.00 | 76 | 1019.3 |
| 20260901150502 | 17 | 200 | 3.2 | 9.7 | 0.00 | 0.00 | 0.00 | 77 | 1019.4 |
| 20260901145520 | 17 | 216 | 1.6 | 9.7 | 0.00 | 0.00 | 0.00 | 77 | 1019.4 |
| 20260901144452 | 17 | 246 | 4.8 | 14.5 | 0.00 | 0.00 | 0.00 | 77 | 1019.6 |
| 20260901143454 | 17 | 263 | 6.4 | 19.3 | 0.00 | 0.00 | 0.00 | 76 | 1019.6 |
| 20260901142436 | 17 | 300 | 8.0 | 20.9 | 0.00 | 0.00 | 0.00 | 75 | 1019.5 |
| 20260901141437 | 18 | 299 | 9.7 | 20.9 | 0.00 | 0.00 | 0.00 | 72 | 1019.5 |
| 20260901140417 | 19 | 0 | 4.8 | 16.1 | 0.00 | 0.00 | 0.00 | 69 | 1019.4 |
| 20260901135409 | 20 | 282 | 4.8 | 14.5 | 0.00 | 0.00 | 0.00 | 68 | 1019.3 |
| 20260901132101 | 20 | 289 | 4.8 | 14.5 | 0.00 | 0.00 | 0.00 | 63 | 1019.4 |
| 20260901130019 | 20 | 232 | 8.0 | 19.3 | 0.00 | 0.00 | 0.00 | 62 | 1019.3 |
| 20260901123842 | 21 | 279 | 4.8 | 12.9 | 0.00 | 0.00 | 0.00 | 60 | 1019.2 |
| 20260901122855 | 21 | 212 | 4.8 | 12.9 | 0.00 | 0.00 | 0.00 | 57 | 1019.2 |
| 20260901121914 | 21 | 314 | 3.2 | 16.1 | 0.00 | 0.00 | 0.00 | 61 | 1019.1 |
| 20260901120925 | 20 | 145 | 6.4 | 17.7 | 0.00 | 0.00 | 0.00 | 58 | 1019.3 |
| 20260901115905 | 20 | 216 | 6.4 | 17.7 | 0.00 | 0.00 | 0.00 | 59 | 1019.3 |
| 20260901114912 | 20 | 211 | 6.4 | 14.5 | 0.00 | 0.00 | 0.00 | 59 | 1019.5 |
| 20260901113841 | 20 | 200 | 3.2 | 17.7 | 0.00 | 0.00 | 0.00 | 60 | 1019.4 |
| 20260901112855 | 20 | 286 | 4.8 | 17.7 | 0.00 | 0.00 | 0.00 | 61 | 1019.4 |
| 20260901111859 | 20 | 300 | 4.8 | 16.1 | 0.00 | 0.00 | 0.00 | 61 | 1019.4 |
| 20260901110918 | 19 | 162 | 4.8 | 14.5 | 0.00 | 0.00 | 0.00 | 64 | 1019.5 |
| 20260901105944 | 19 | 292 | 4.8 | 16.1 | 0.00 | 0.00 | 0.00 | 60 | 1019.6 |
| 20260901104936 | 20 | 313 | 4.8 | 16.1 | 0.00 | 0.00 | 0.00 | 63 | 1019.7 |
| 20260901103917 | 19 | 235 | 4.8 | 14.5 | 0.00 | 0.00 | 0.00 | 65 | 1019.7 |
| 20260901102907 | 18 | 267 | 3.2 | 11.3 | 0.00 | 0.00 | 0.00 | 68 | 1019.8 |
| 20260901101907 | 18 | 274 | 3.2 | 9.7 | 0.00 | 0.00 | 0.00 | 70 | 1019.9 |
| 20260901100851 | 17 | 289 | 4.8 | 9.7 | 0.00 | 0.00 | 0.00 | 72 | 1020.0 |
| 20260901095831 | 17 | 227 | 3.2 | 11.3 | 0.00 | 0.00 | 0.00 | 76 | 1020.1 |
| 20260901094834 | 17 | 291 | 3.2 | 11.3 | 0.00 | 0.00 | 0.00 | 75 | 1020.1 |
| 20260901093844 | 17 | 148 | 1.6 | 9.7 | 0.00 | 0.00 | 0.00 | 79 | 1020.1 |
| 20260901092831 | 17 | 355 | 1.6 | 9.7 | 0.00 | 0.00 | 0.00 | 82 | 1020.1 |
| 20260901091801 | 16 | 180 | 0.0 | 3.2 | 0.00 | 0.00 | 0.00 | 85 | 1020.2 |
| 20260901090817 | 15 | 290 | 1.6 | 8.0 | 0.00 | 0.00 | 0.00 | 88 | 1020.1 |
| 20260901085752 | 15 | 258 | 1.6 | 8.0 | 0.00 | 0.00 | 0.00 | 91 | 1020.2 |
| 20260901084736 | 15 | 266 | 0.0 | 4.8 | 0.00 | 0.00 | 0.00 | 94 | 1020.2 |
| 20260901083708 | 14 | 123 | 0.0 | 8.0 | 0.00 | 0.00 | 0.00 | 95 | 1020.2 |
| 20260901082657 | 13 | 75 | 1.6 | 6.4 | 0.00 | 0.00 | 0.00 | 96 | 1020.2 |
| 20260901081641 | 13 | 184 | 1.6 | 6.4 | 0.00 | 0.00 | 0.00 | 96 | 1020.1 |
| 20260901080651 | 13 | 266 | 0.0 | 4.8 | 0.00 | 0.00 | 0.00 | 97 | 1020.2 |
| 20260901075638 | 12 | 105 | 0.0 | 0.0 | 0.00 | 0.00 | 0.00 | 97 | 1020.1 |
| 20260901074622 | 12 | 227 | 0.0 | 1.6 | 0.00 | 0.00 | 0.00 | 97 | 1020.1 |
| 20260901073625 | 11 | 232 | 0.0 | 0.0 | 0.00 | 0.00 | 0.00 | 97 | 1020.1 |
| 20260901071439 | 10 | 261 | 0.0 | 3.2 | 0.00 | 0.00 | 0.00 | 97 | 1020.1 |
| 20260901070438 | 10 | 165 | 0.0 | 0.0 | 0.00 | 0.00 | 0.00 | 96 | 1020.1 |
| 20260901065407 | 10 | 165 | 0.0 | 0.0 | 0.00 | 0.00 | 0.00 | 96 | 1020.0 |
| 20260901064345 | 10 | 165 | 0.0 | 0.0 | 0.00 | 0.00 | 0.00 | 96 | 1019.9 |
| 20260901061203 | 8 | 216 | 0.0 | 0.0 | 0.00 | 0.00 | 0.00 | 96 | 1019.7 |
| 20260901060200 | 8 | 216 | 0.0 | 0.0 | 0.00 | 0.00 | 0.00 | 96 | 1019.7 |
| 20260901055203 | 8 | 216 | 0.0 | 0.0 | 0.00 | 0.00 | 0.00 | 95 | 1019.6 |
| 20260901054144 | 8 | 216 | 0.0 | 0.0 | 0.00 | 0.00 | 0.00 | 96 | 1019.5 |
| 20260901053133 | 8 | 216 | 0.0 | 0.0 | 0.00 | 0.00 | 0.00 | 95 | 1019.4 |
| 20260901051030 | 8 | 216 | 0.0 | 0.0 | 0.00 | 0.00 | 0.00 | 95 | 1019.3 |
| 20260901050031 | 8 | 216 | 0.0 | 0.0 | 0.00 | 0.00 | 0.00 | 95 | 1019.1 |
| 20260901043946 | 8 | 216 | 0.0 | 0.0 | 0.00 | 0.00 | 0.00 | 95 | 1019.0 |
| 20260901042914 | 8 | 216 | 0.0 | 0.0 | 0.00 | 0.00 | 0.00 | 94 | 1019.1 |
| 20260901041927 | 8 | 216 | 0.0 | 0.0 | 0.00 | 0.00 | 0.00 | 94 | 1019.0 |
| 20260901040918 | 8 | 216 | 0.0 | 0.0 | 0.00 | 0.00 | 0.00 | 95 | 1019.1 |
| 20260901035917 | 8 | 216 | 0.0 | 0.0 | 0.00 | 0.00 | 0.00 | 95 | 1019.1 |
| 20260901034919 | 8 | 216 | 0.0 | 0.0 | 0.00 | 0.00 | 0.00 | 95 | 1019.1 |
| 20260901033917 | 8 | 216 | 0.0 | 0.0 | 0.00 | 0.00 | 0.00 | 95 | 1019.2 |
| 20260901032928 | 8 | 216 | 0.0 | 0.0 | 0.00 | 0.00 | 0.00 | 94 | 1019.1 |
| 20260901031904 | 8 | 216 | 0.0 | 0.0 | 0.00 | 0.00 | 0.00 | 94 | 1019.0 |
| 20260901025801 | 9 | 216 | 0.0 | 0.0 | 0.00 | 0.00 | 0.00 | 94 | 1019.0 |
| 20260901024741 | 8 | 216 | 0.0 | 0.0 | 0.00 | 0.00 | 0.00 | 94 | 1019.1 |